Year,Month,Day,Hour,Minute,Value (Times are PST for temperature in C)
2018,09,28,00,00,16.20
2018,09,28,00,01,16.20
2018,09,28,00,02,16.20
2018,09,28,00,03,16.20
2018,09,28,00,04,16.20
2018,09,28,00,05,16.20
2018,09,28,00,06,16.20
2018,09,28,00,07,16.20
2018,09,28,00,08,16.20
2018,09,28,00,09,16.20
2018,09,28,00,10,16.20
2018,09,28,00,11,16.20
2018,09,28,00,12,16.20
2018,09,28,00,13,16.20
2018,09,28,00,14,16.10
2018,09,28,00,15,16.20
2018,09,28,00,16,16.20
2018,09,28,00,17,16.20
2018,09,28,00,18,16.10
2018,09,28,00,19,16.10
2018,09,28,00,20,16.10
2018,09,28,00,21,16.10
2018,09,28,00,22,16.10
2018,09,28,00,23,16.10
2018,09,28,00,24,16.10
2018,09,28,00,25,16.10
2018,09,28,00,26,16.10
2018,09,28,00,27,16.10
2018,09,28,00,28,16.20
2018,09,28,00,29,16.20
2018,09,28,00,30,16.20
2018,09,28,00,31,16.20
2018,09,28,00,32,16.10
2018,09,28,00,33,16.10
2018,09,28,00,34,16.10
2018,09,28,00,35,16.10
2018,09,28,00,36,16.10
2018,09,28,00,37,16.00
2018,09,28,00,38,16.00
2018,09,28,00,39,15.90
2018,09,28,00,40,15.90
2018,09,28,00,41,15.90
2018,09,28,00,42,15.90
2018,09,28,00,43,15.90
2018,09,28,00,44,16.00
2018,09,28,00,45,16.00
2018,09,28,00,46,15.90
2018,09,28,00,47,15.90
2018,09,28,00,48,15.90
2018,09,28,00,49,15.90
2018,09,28,00,50,15.90
2018,09,28,00,51,15.80
2018,09,28,00,52,15.80
2018,09,28,00,53,15.80
2018,09,28,00,54,15.80
2018,09,28,00,55,15.80
2018,09,28,00,56,15.80
2018,09,28,00,57,15.80
2018,09,28,00,58,15.80
2018,09,28,00,59,15.80
2018,09,28,01,00,15.80
2018,09,28,01,01,15.80
2018,09,28,01,02,15.80
2018,09,28,01,03,15.80
2018,09,28,01,04,15.90
2018,09,28,01,05,15.90
2018,09,28,01,06,15.80
2018,09,28,01,07,15.80
2018,09,28,01,08,15.80
2018,09,28,01,09,15.80
2018,09,28,01,10,15.80
2018,09,28,01,11,15.80
2018,09,28,01,12,15.80
2018,09,28,01,13,15.80
2018,09,28,01,14,15.80
2018,09,28,01,15,15.80
2018,09,28,01,16,15.80
2018,09,28,01,17,15.80
2018,09,28,01,18,15.80
2018,09,28,01,19,15.70
2018,09,28,01,20,15.70
2018,09,28,01,21,15.70
2018,09,28,01,22,15.70
2018,09,28,01,23,15.60
2018,09,28,01,24,15.60
2018,09,28,01,25,15.60
2018,09,28,01,26,15.60
2018,09,28,01,27,15.60
2018,09,28,01,28,15.60
2018,09,28,01,29,15.60
2018,09,28,01,30,15.60
2018,09,28,01,31,15.60
2018,09,28,01,32,15.70
2018,09,28,01,33,15.70
2018,09,28,01,34,15.70
2018,09,28,01,35,15.70
2018,09,28,01,36,15.70
2018,09,28,01,37,15.70
2018,09,28,01,38,15.70
2018,09,28,01,39,15.70
2018,09,28,01,40,15.70
2018,09,28,01,41,15.70
2018,09,28,01,42,15.70
2018,09,28,01,43,15.70
2018,09,28,01,44,15.80
2018,09,28,01,45,15.80
2018,09,28,01,46,15.80
2018,09,28,01,47,15.80
2018,09,28,01,48,15.80
2018,09,28,01,49,15.80
2018,09,28,01,50,15.80
2018,09,28,01,51,15.80
2018,09,28,01,52,15.80
2018,09,28,01,53,15.80
2018,09,28,01,54,15.70
2018,09,28,01,55,15.70
2018,09,28,01,56,15.70
2018,09,28,01,57,15.70
2018,09,28,01,58,15.70
2018,09,28,01,59,15.70
2018,09,28,02,00,15.70
2018,09,28,02,01,15.70
2018,09,28,02,02,15.60
2018,09,28,02,03,15.60
2018,09,28,02,04,15.60
2018,09,28,02,05,15.60
2018,09,28,02,06,15.60
2018,09,28,02,07,15.60
2018,09,28,02,08,15.60
2018,09,28,02,09,15.60
2018,09,28,02,10,15.60
2018,09,28,02,11,15.60
2018,09,28,02,12,15.60
2018,09,28,02,13,15.60
2018,09,28,02,14,15.60
2018,09,28,02,15,15.50
2018,09,28,02,16,15.50
2018,09,28,02,17,15.50
2018,09,28,02,18,15.50
2018,09,28,02,19,15.50
2018,09,28,02,20,15.40
2018,09,28,02,21,15.40
2018,09,28,02,22,15.40
2018,09,28,02,23,15.40
2018,09,28,02,24,15.40
2018,09,28,02,25,15.40
2018,09,28,02,26,15.40
2018,09,28,02,27,15.40
2018,09,28,02,28,15.40
2018,09,28,02,29,15.40
2018,09,28,02,30,15.40
2018,09,28,02,31,15.30
2018,09,28,02,32,15.30
2018,09,28,02,33,15.30
2018,09,28,02,34,15.30
2018,09,28,02,35,15.30
2018,09,28,02,36,15.20
2018,09,28,02,37,15.20
2018,09,28,02,38,15.20
2018,09,28,02,39,15.20
2018,09,28,02,40,15.20
2018,09,28,02,41,15.20
2018,09,28,02,42,15.20
2018,09,28,02,43,15.20
2018,09,28,02,44,15.20
2018,09,28,02,45,15.20
2018,09,28,02,46,15.20
2018,09,28,02,47,15.20
2018,09,28,02,48,15.20
2018,09,28,02,49,15.20
2018,09,28,02,50,15.20
2018,09,28,02,51,15.20
2018,09,28,02,52,15.20
2018,09,28,02,53,15.20
2018,09,28,02,54,15.20
2018,09,28,02,55,15.20
2018,09,28,02,56,15.20
2018,09,28,02,57,15.20
2018,09,28,02,58,15.20
2018,09,28,02,59,15.20
2018,09,28,03,00,15.20
2018,09,28,03,01,15.20
2018,09,28,03,02,15.20
2018,09,28,03,03,15.20
2018,09,28,03,04,15.20
2018,09,28,03,05,15.20
2018,09,28,03,06,15.20
2018,09,28,03,07,15.20
2018,09,28,03,08,15.20
2018,09,28,03,09,15.30
2018,09,28,03,10,15.30
2018,09,28,03,11,15.30
2018,09,28,03,12,15.30
2018,09,28,03,13,15.30
2018,09,28,03,14,15.30
2018,09,28,03,15,15.30
2018,09,28,03,16,15.30
2018,09,28,03,17,15.30
2018,09,28,03,18,15.30
2018,09,28,03,19,15.30
2018,09,28,03,20,15.40
2018,09,28,03,21,15.40
2018,09,28,03,22,15.30
2018,09,28,03,23,15.30
2018,09,28,03,24,15.30
2018,09,28,03,25,15.30
2018,09,28,03,26,15.30
2018,09,28,03,27,15.30
2018,09,28,03,28,15.30
2018,09,28,03,29,15.20
2018,09,28,03,30,15.20
2018,09,28,03,31,15.20
2018,09,28,03,32,15.20
2018,09,28,03,33,15.20
2018,09,28,03,34,15.20
2018,09,28,03,35,15.10
2018,09,28,03,36,15.20
2018,09,28,03,37,15.20
2018,09,28,03,38,15.20
2018,09,28,03,39,15.20
2018,09,28,03,40,15.10
2018,09,28,03,41,15.20
2018,09,28,03,42,15.20
2018,09,28,03,43,15.20
2018,09,28,03,44,15.20
2018,09,28,03,45,15.20
2018,09,28,03,46,15.20
2018,09,28,03,47,15.20
2018,09,28,03,48,15.20
2018,09,28,03,49,15.20
2018,09,28,03,50,15.30
2018,09,28,03,51,15.20
2018,09,28,03,52,15.30
2018,09,28,03,53,15.30
2018,09,28,03,54,15.30
2018,09,28,03,55,15.30
2018,09,28,03,56,15.30
2018,09,28,03,57,15.30
2018,09,28,03,58,15.30
2018,09,28,03,59,15.20
2018,09,28,04,00,15.20
2018,09,28,04,01,15.20
2018,09,28,04,02,15.20
2018,09,28,04,03,15.20
2018,09,28,04,04,15.20
2018,09,28,04,05,15.20
2018,09,28,04,06,15.20
2018,09,28,04,07,15.20
2018,09,28,04,08,15.20
2018,09,28,04,09,15.10
2018,09,28,04,10,15.10
2018,09,28,04,11,15.10
2018,09,28,04,12,15.10
2018,09,28,04,13,15.10
2018,09,28,04,14,15.10
2018,09,28,04,15,15.10
2018,09,28,04,16,15.10
2018,09,28,04,17,15.10
2018,09,28,04,18,15.20
2018,09,28,04,19,15.10
2018,09,28,04,20,15.10
2018,09,28,04,21,15.10
2018,09,28,04,22,15.10
2018,09,28,04,23,15.10
2018,09,28,04,24,15.00
2018,09,28,04,25,15.00
2018,09,28,04,26,15.00
2018,09,28,04,27,14.90
2018,09,28,04,28,14.90
2018,09,28,04,29,14.90
2018,09,28,04,30,14.80
2018,09,28,04,31,14.80
2018,09,28,04,32,14.70
2018,09,28,04,33,14.70
2018,09,28,04,34,14.60
2018,09,28,04,35,14.60
2018,09,28,04,36,14.50
2018,09,28,04,37,14.50
2018,09,28,04,38,14.40
2018,09,28,04,39,14.40
2018,09,28,04,40,14.40
2018,09,28,04,41,14.30
2018,09,28,04,42,14.30
2018,09,28,04,43,14.30
2018,09,28,04,44,14.20
2018,09,28,04,45,14.20
2018,09,28,04,46,14.10
2018,09,28,04,47,14.10
2018,09,28,04,48,14.00
2018,09,28,04,49,14.00
2018,09,28,04,50,14.00
2018,09,28,04,51,13.90
2018,09,28,04,52,13.90
2018,09,28,04,53,13.90
2018,09,28,04,54,13.90
2018,09,28,04,55,13.80
2018,09,28,04,56,13.80
2018,09,28,04,57,13.80
2018,09,28,04,58,13.70
2018,09,28,04,59,13.70
2018,09,28,05,00,13.70
2018,09,28,05,01,13.70
2018,09,28,05,02,13.60
2018,09,28,05,03,13.60
2018,09,28,05,04,13.60
2018,09,28,05,05,13.60
2018,09,28,05,06,13.50
2018,09,28,05,07,13.50
2018,09,28,05,08,13.40
2018,09,28,05,09,13.40
2018,09,28,05,10,13.40
2018,09,28,05,11,13.40
2018,09,28,05,12,13.30
2018,09,28,05,13,13.30
2018,09,28,05,14,13.30
2018,09,28,05,15,13.30
2018,09,28,05,16,13.30
2018,09,28,05,17,13.30
2018,09,28,05,18,13.20
2018,09,28,05,19,13.20
2018,09,28,05,20,13.20
2018,09,28,05,21,13.20
2018,09,28,05,22,13.20
2018,09,28,05,23,13.10
2018,09,28,05,24,13.10
2018,09,28,05,25,13.10
2018,09,28,05,26,13.10
2018,09,28,05,27,13.10
2018,09,28,05,28,13.10
2018,09,28,05,29,13.10
2018,09,28,05,30,13.00
2018,09,28,05,31,13.00
2018,09,28,05,32,13.00
2018,09,28,05,33,12.90
2018,09,28,05,34,12.90
2018,09,28,05,35,12.90
2018,09,28,05,36,12.90
2018,09,28,05,37,12.90
2018,09,28,05,38,12.90
2018,09,28,05,39,12.90
2018,09,28,05,40,12.90
2018,09,28,05,41,12.90
2018,09,28,05,42,13.00
2018,09,28,05,43,13.00
2018,09,28,05,44,13.00
2018,09,28,05,45,13.00
2018,09,28,05,46,13.10
2018,09,28,05,47,13.10
2018,09,28,05,48,13.10
2018,09,28,05,49,13.10
2018,09,28,05,50,13.20
2018,09,28,05,51,13.20
2018,09,28,05,52,13.20
2018,09,28,05,53,13.20
2018,09,28,05,54,13.20
2018,09,28,05,55,13.30
2018,09,28,05,56,13.30
2018,09,28,05,57,13.30
2018,09,28,05,58,13.30
2018,09,28,05,59,13.40
2018,09,28,06,00,13.50
2018,09,28,06,01,13.50
2018,09,28,06,02,13.60
2018,09,28,06,03,13.60
2018,09,28,06,04,13.60
2018,09,28,06,05,13.70
2018,09,28,06,06,13.80
2018,09,28,06,07,13.80
2018,09,28,06,08,13.90
2018,09,28,06,09,13.90
2018,09,28,06,10,14.00
2018,09,28,06,11,14.00
2018,09,28,06,12,14.10
2018,09,28,06,13,14.10
2018,09,28,06,14,14.10
2018,09,28,06,15,14.10
2018,09,28,06,16,14.10
2018,09,28,06,17,14.10
2018,09,28,06,18,14.10
2018,09,28,06,19,14.00
2018,09,28,06,20,14.00
2018,09,28,06,21,14.00
2018,09,28,06,22,14.00
2018,09,28,06,23,13.90
2018,09,28,06,24,13.90
2018,09,28,06,25,13.90
2018,09,28,06,26,13.90
2018,09,28,06,27,13.80
2018,09,28,06,28,13.80
2018,09,28,06,29,13.80
2018,09,28,06,30,13.80
2018,09,28,06,31,13.70
2018,09,28,06,32,13.70
2018,09,28,06,33,13.70
2018,09,28,06,34,13.70
2018,09,28,06,35,13.60
2018,09,28,06,36,13.60
2018,09,28,06,37,13.60
2018,09,28,06,38,13.50
2018,09,28,06,39,13.50
2018,09,28,06,40,13.50
2018,09,28,06,41,13.40
2018,09,28,06,42,13.40
2018,09,28,06,43,13.40
2018,09,28,06,44,13.30
2018,09,28,06,45,13.30
2018,09,28,06,46,13.30
2018,09,28,06,47,13.30
2018,09,28,06,48,13.30
2018,09,28,06,49,13.20
2018,09,28,06,50,13.20
2018,09,28,06,51,13.20
2018,09,28,06,52,13.20
2018,09,28,06,53,13.20
2018,09,28,06,54,13.20
2018,09,28,06,55,13.10
2018,09,28,06,56,13.10
2018,09,28,06,57,13.10
2018,09,28,06,58,13.10
2018,09,28,06,59,13.10
2018,09,28,07,00,13.00
2018,09,28,07,01,13.00
2018,09,28,07,02,13.00
2018,09,28,07,03,13.00
2018,09,28,07,04,13.00
2018,09,28,07,05,13.00
2018,09,28,07,06,12.90
2018,09,28,07,07,12.90
2018,09,28,07,08,12.90
2018,09,28,07,09,12.90
2018,09,28,07,10,12.90
2018,09,28,07,11,12.90
2018,09,28,07,12,12.90
2018,09,28,07,13,12.90
2018,09,28,07,14,12.90
2018,09,28,07,15,12.90
2018,09,28,07,16,12.90
2018,09,28,07,17,12.90
2018,09,28,07,18,12.90
2018,09,28,07,19,12.90
2018,09,28,07,20,12.90
2018,09,28,07,21,12.90
2018,09,28,07,22,12.90
2018,09,28,07,23,12.90
2018,09,28,07,24,12.90
2018,09,28,07,25,12.80
2018,09,28,07,26,12.80
2018,09,28,07,27,12.80
2018,09,28,07,28,12.80
2018,09,28,07,29,12.80
2018,09,28,07,30,12.80
2018,09,28,07,31,12.80
2018,09,28,07,32,12.80
2018,09,28,07,33,12.80
2018,09,28,07,34,12.80
2018,09,28,07,35,12.80
2018,09,28,07,36,12.80
2018,09,28,07,37,12.80
2018,09,28,07,38,12.70
2018,09,28,07,39,12.70
2018,09,28,07,40,12.70
2018,09,28,07,41,12.70
2018,09,28,07,42,12.70
2018,09,28,07,43,12.70
2018,09,28,07,44,12.70
2018,09,28,07,45,12.70
2018,09,28,07,46,12.70
2018,09,28,07,47,12.70
2018,09,28,07,48,12.70
2018,09,28,07,49,12.60
2018,09,28,07,50,12.60
2018,09,28,07,51,12.60
2018,09,28,07,52,12.60
2018,09,28,07,53,12.60
2018,09,28,07,54,12.60
2018,09,28,07,55,12.60
2018,09,28,07,56,12.60
2018,09,28,07,57,12.60
2018,09,28,07,58,12.60
2018,09,28,07,59,12.60
2018,09,28,08,00,12.60
2018,09,28,08,01,12.60
2018,09,28,08,02,12.60
2018,09,28,08,03,12.60
2018,09,28,08,04,12.50
2018,09,28,08,05,12.50
2018,09,28,08,06,12.50
2018,09,28,08,07,12.50
2018,09,28,08,08,12.50
2018,09,28,08,09,12.50
2018,09,28,08,10,12.50
2018,09,28,08,11,12.50
2018,09,28,08,12,12.50
2018,09,28,08,13,12.50
2018,09,28,08,14,12.50
2018,09,28,08,15,12.40
2018,09,28,08,16,12.40
2018,09,28,08,17,12.40
2018,09,28,08,18,12.40
2018,09,28,08,19,12.40
2018,09,28,08,20,12.40
2018,09,28,08,21,12.40
2018,09,28,08,22,12.40
2018,09,28,08,23,12.40
2018,09,28,08,24,12.40
2018,09,28,08,25,12.40
2018,09,28,08,26,12.40
2018,09,28,08,27,12.40
2018,09,28,08,28,12.40
2018,09,28,08,29,12.40
2018,09,28,08,30,12.40
2018,09,28,08,31,12.40
2018,09,28,08,32,12.40
2018,09,28,08,33,12.40
2018,09,28,08,34,12.40
2018,09,28,08,35,12.40
2018,09,28,08,36,12.40
2018,09,28,08,37,12.40
2018,09,28,08,38,12.40
2018,09,28,08,39,12.40
2018,09,28,08,40,12.40
2018,09,28,08,41,12.40
2018,09,28,08,42,12.40
2018,09,28,08,43,12.40
2018,09,28,08,44,12.50
2018,09,28,08,45,12.50
2018,09,28,08,46,12.50
2018,09,28,08,47,12.50
2018,09,28,08,48,12.50
2018,09,28,08,49,12.60
2018,09,28,08,50,12.60
2018,09,28,08,51,12.70
2018,09,28,08,52,12.70
2018,09,28,08,53,12.70
2018,09,28,08,54,12.70
2018,09,28,08,55,12.70
2018,09,28,08,56,12.70
2018,09,28,08,57,12.70
2018,09,28,08,58,12.80
2018,09,28,08,59,12.80
2018,09,28,09,00,12.80
2018,09,28,09,01,12.80
2018,09,28,09,02,12.80
2018,09,28,09,03,12.80
2018,09,28,09,04,12.80
2018,09,28,09,05,12.80
2018,09,28,09,06,12.80
2018,09,28,09,07,12.80
2018,09,28,09,08,12.80
2018,09,28,09,09,12.80
2018,09,28,09,10,12.80
2018,09,28,09,11,12.80
2018,09,28,09,12,12.80
2018,09,28,09,13,12.80
2018,09,28,09,14,12.80
2018,09,28,09,15,12.80
2018,09,28,09,16,12.80
2018,09,28,09,17,12.80
2018,09,28,09,18,12.80
2018,09,28,09,19,12.80
2018,09,28,09,20,12.90
2018,09,28,09,21,12.80
2018,09,28,09,22,12.90
2018,09,28,09,23,12.90
2018,09,28,09,24,12.90
2018,09,28,09,25,12.90
2018,09,28,09,26,12.90
2018,09,28,09,27,12.90
2018,09,28,09,28,12.90
2018,09,28,09,29,12.90
2018,09,28,09,30,12.90
2018,09,28,09,31,12.90
2018,09,28,09,32,12.90
2018,09,28,09,33,12.90
2018,09,28,09,34,12.90
2018,09,28,09,35,12.90
2018,09,28,09,36,13.00
2018,09,28,09,37,13.00
2018,09,28,09,38,13.00
2018,09,28,09,39,13.00
2018,09,28,09,40,13.10
2018,09,28,09,41,13.10
2018,09,28,09,42,13.10
2018,09,28,09,43,13.10
2018,09,28,09,44,13.10
2018,09,28,09,45,13.10
2018,09,28,09,46,13.10
2018,09,28,09,47,13.10
2018,09,28,09,48,13.10
2018,09,28,09,49,13.10
2018,09,28,09,50,13.10
2018,09,28,09,51,13.20
2018,09,28,09,52,13.20
2018,09,28,09,53,13.20
2018,09,28,09,54,13.20
2018,09,28,09,55,13.20
2018,09,28,09,56,13.20
2018,09,28,09,57,13.20
2018,09,28,09,58,13.20
2018,09,28,09,59,13.20
2018,09,28,10,00,13.30
2018,09,28,10,01,13.30
2018,09,28,10,02,13.30
2018,09,28,10,03,13.30
2018,09,28,10,04,13.30
2018,09,28,10,05,13.30
2018,09,28,10,06,13.30
2018,09,28,10,07,13.30
2018,09,28,10,08,13.40
2018,09,28,10,09,13.40
2018,09,28,10,10,13.40
2018,09,28,10,11,13.40
2018,09,28,10,12,13.40
2018,09,28,10,13,13.40
2018,09,28,10,14,13.40
2018,09,28,10,15,13.40
2018,09,28,10,16,13.40
2018,09,28,10,17,13.40
2018,09,28,10,18,13.50
2018,09,28,10,19,13.50
2018,09,28,10,20,13.50
2018,09,28,10,21,13.50
2018,09,28,10,22,13.50
2018,09,28,10,23,13.60
2018,09,28,10,24,13.60
2018,09,28,10,25,13.60
2018,09,28,10,26,13.60
2018,09,28,10,27,13.60
2018,09,28,10,28,13.60
2018,09,28,10,29,13.60
2018,09,28,10,30,13.60
2018,09,28,10,31,13.70
2018,09,28,10,32,13.70
2018,09,28,10,33,13.70
2018,09,28,10,34,13.70
2018,09,28,10,35,13.70
2018,09,28,10,36,13.80
2018,09,28,10,37,13.80
2018,09,28,10,38,13.80
2018,09,28,10,39,13.90
2018,09,28,10,40,13.90
2018,09,28,10,41,13.90
2018,09,28,10,42,13.90
2018,09,28,10,43,14.00
2018,09,28,10,44,14.00
2018,09,28,10,45,14.10
2018,09,28,10,46,14.10
2018,09,28,10,47,14.20
2018,09,28,10,48,14.30
2018,09,28,10,49,14.30
2018,09,28,10,50,14.30
2018,09,28,10,51,14.40
2018,09,28,10,52,14.40
2018,09,28,10,53,14.40
2018,09,28,10,54,14.40
2018,09,28,10,55,14.50
2018,09,28,10,56,14.50
2018,09,28,10,57,14.60
2018,09,28,10,58,14.60
2018,09,28,10,59,14.60
2018,09,28,11,00,14.60
2018,09,28,11,01,14.70
2018,09,28,11,02,14.70
2018,09,28,11,03,14.70
2018,09,28,11,04,14.70
2018,09,28,11,05,14.70
2018,09,28,11,06,14.80
2018,09,28,11,07,14.80
2018,09,28,11,08,14.80
2018,09,28,11,09,14.80
2018,09,28,11,10,14.90
2018,09,28,11,11,14.90
2018,09,28,11,12,14.90
2018,09,28,11,13,15.00
2018,09,28,11,14,15.00
2018,09,28,11,15,15.00
2018,09,28,11,16,15.10
2018,09,28,11,17,15.10
2018,09,28,11,18,15.20
2018,09,28,11,19,15.20
2018,09,28,11,20,15.30
2018,09,28,11,21,15.40
2018,09,28,11,22,15.50
2018,09,28,11,23,15.60
2018,09,28,11,24,15.70
2018,09,28,11,25,15.80
2018,09,28,11,26,15.90
2018,09,28,11,27,16.00
2018,09,28,11,28,16.10
2018,09,28,11,29,16.20
2018,09,28,11,30,16.30
2018,09,28,11,31,16.40
2018,09,28,11,32,16.50
2018,09,28,11,33,16.60
2018,09,28,11,34,16.70
2018,09,28,11,35,16.70
2018,09,28,11,36,16.80
2018,09,28,11,37,16.80
2018,09,28,11,38,16.80
2018,09,28,11,39,16.90
2018,09,28,11,40,16.90
2018,09,28,11,41,16.90
2018,09,28,11,42,16.90
2018,09,28,11,43,16.90
2018,09,28,11,44,17.00
2018,09,28,11,45,17.00
2018,09,28,11,46,17.00
2018,09,28,11,47,17.10
2018,09,28,11,48,17.10
2018,09,28,11,49,17.10
2018,09,28,11,50,17.10
2018,09,28,11,51,17.20
2018,09,28,11,52,17.20
2018,09,28,11,53,17.20
2018,09,28,11,54,17.20
2018,09,28,11,55,17.30
2018,09,28,11,56,17.30
2018,09,28,11,57,17.30
2018,09,28,11,58,17.30
2018,09,28,11,59,17.40
2018,09,28,12,00,17.40
2018,09,28,12,01,17.50
2018,09,28,12,02,17.50
2018,09,28,12,03,17.60
2018,09,28,12,04,17.60
2018,09,28,12,05,17.60
2018,09,28,12,06,17.70
2018,09,28,12,07,17.70
2018,09,28,12,08,17.70
2018,09,28,12,09,17.80
2018,09,28,12,10,17.80
2018,09,28,12,11,17.80
2018,09,28,12,12,17.80
2018,09,28,12,13,17.90
2018,09,28,12,14,17.90
2018,09,28,12,15,17.90
2018,09,28,12,16,18.00
2018,09,28,12,17,18.00
2018,09,28,12,18,18.00
2018,09,28,12,19,18.10
2018,09,28,12,20,18.10
2018,09,28,12,21,18.10
2018,09,28,12,22,18.10
2018,09,28,12,23,18.10
2018,09,28,12,24,18.20
2018,09,28,12,25,18.20
2018,09,28,12,26,18.20
2018,09,28,12,27,18.30
2018,09,28,12,28,18.40
2018,09,28,12,29,18.40
2018,09,28,12,30,18.50
2018,09,28,12,31,18.50
2018,09,28,12,32,18.60
2018,09,28,12,33,18.70
2018,09,28,12,34,18.70
2018,09,28,12,35,18.70
2018,09,28,12,36,18.80
2018,09,28,12,37,18.90
2018,09,28,12,38,18.90
2018,09,28,12,39,19.00
2018,09,28,12,40,19.00
2018,09,28,12,41,19.10
2018,09,28,12,42,19.10
2018,09,28,12,43,19.20
2018,09,28,12,44,19.20
2018,09,28,12,45,19.30
2018,09,28,12,46,19.30
2018,09,28,12,47,19.30
2018,09,28,12,48,19.40
2018,09,28,12,49,19.40
2018,09,28,12,50,19.50
2018,09,28,12,51,19.60
2018,09,28,12,52,19.60
2018,09,28,12,53,19.60
2018,09,28,12,54,19.60
2018,09,28,12,55,19.70
2018,09,28,12,56,19.70
2018,09,28,12,57,19.70
2018,09,28,12,58,19.70
2018,09,28,12,59,19.70
2018,09,28,13,00,19.70
2018,09,28,13,01,19.70
2018,09,28,13,02,19.70
2018,09,28,13,03,19.70
2018,09,28,13,04,19.70
2018,09,28,13,05,19.70
2018,09,28,13,06,19.70
2018,09,28,13,07,19.70
2018,09,28,13,08,19.70
2018,09,28,13,09,19.70
2018,09,28,13,10,19.70
2018,09,28,13,11,19.70
2018,09,28,13,12,19.70
2018,09,28,13,13,19.80
2018,09,28,13,14,19.80
2018,09,28,13,15,19.80
2018,09,28,13,16,19.70
2018,09,28,13,17,19.70
2018,09,28,13,18,19.70
2018,09,28,13,19,19.70
2018,09,28,13,20,19.70
2018,09,28,13,21,19.60
2018,09,28,13,22,19.60
2018,09,28,13,23,19.60
2018,09,28,13,24,19.50
2018,09,28,13,25,19.50
2018,09,28,13,26,19.40
2018,09,28,13,27,19.40
2018,09,28,13,28,19.40
2018,09,28,13,29,19.40
2018,09,28,13,30,19.40
2018,09,28,13,31,19.40
2018,09,28,13,32,19.40
2018,09,28,13,33,19.40
2018,09,28,13,34,19.40
2018,09,28,13,35,19.40
2018,09,28,13,36,19.40
2018,09,28,13,37,19.40
2018,09,28,13,38,19.40
2018,09,28,13,39,19.40
2018,09,28,13,40,19.40
2018,09,28,13,41,19.40
2018,09,28,13,42,19.50
2018,09,28,13,43,19.50
2018,09,28,13,44,19.50
2018,09,28,13,45,19.60
2018,09,28,13,46,19.60
2018,09,28,13,47,19.60
2018,09,28,13,48,19.60
2018,09,28,13,49,19.60
2018,09,28,13,50,19.60
2018,09,28,13,51,19.70
2018,09,28,13,52,19.70
2018,09,28,13,53,19.70
2018,09,28,13,54,19.70
2018,09,28,13,55,19.70
2018,09,28,13,56,19.60
2018,09,28,13,57,19.60
2018,09,28,13,58,19.60
2018,09,28,13,59,19.60
2018,09,28,14,00,19.60
2018,09,28,14,01,19.60
2018,09,28,14,02,19.60
2018,09,28,14,03,19.60
2018,09,28,14,04,19.60
2018,09,28,14,05,19.60
2018,09,28,14,06,19.60
2018,09,28,14,07,19.60
2018,09,28,14,08,19.50
2018,09,28,14,09,19.60
2018,09,28,14,10,19.60
2018,09,28,14,11,19.60
2018,09,28,14,12,19.60
2018,09,28,14,13,19.50
2018,09,28,14,14,19.50
2018,09,28,14,15,19.50
2018,09,28,14,16,19.50
2018,09,28,14,17,19.50
2018,09,28,14,18,19.50
2018,09,28,14,19,19.50
2018,09,28,14,20,19.40
2018,09,28,14,21,19.40
2018,09,28,14,22,19.40
2018,09,28,14,23,19.40
2018,09,28,14,24,19.40
2018,09,28,14,25,19.40
2018,09,28,14,26,19.40
2018,09,28,14,27,19.40
2018,09,28,14,28,19.40
2018,09,28,14,29,19.50
2018,09,28,14,30,19.40
2018,09,28,14,31,19.40
2018,09,28,14,32,19.50
2018,09,28,14,33,19.50
2018,09,28,14,34,19.50
2018,09,28,14,35,19.50
2018,09,28,14,36,19.50
2018,09,28,14,37,19.60
2018,09,28,14,38,19.60
2018,09,28,14,39,19.60
2018,09,28,14,40,19.70
2018,09,28,14,41,19.70
2018,09,28,14,42,19.70
2018,09,28,14,43,19.70
2018,09,28,14,44,19.70
2018,09,28,14,45,19.70
2018,09,28,14,46,19.70
2018,09,28,14,47,19.70
2018,09,28,14,48,19.70
2018,09,28,14,49,19.70
2018,09,28,14,50,19.70
2018,09,28,14,51,19.70
2018,09,28,14,52,19.70
2018,09,28,14,53,19.70
2018,09,28,14,54,19.70
2018,09,28,14,55,19.70
2018,09,28,14,56,19.70
2018,09,28,14,57,19.70
2018,09,28,14,58,19.70
2018,09,28,14,59,19.70
2018,09,28,15,00,19.70
2018,09,28,15,01,19.70
2018,09,28,15,02,19.70
2018,09,28,15,03,19.70
2018,09,28,15,04,19.70
2018,09,28,15,05,19.80
2018,09,28,15,06,19.80
2018,09,28,15,07,19.80
2018,09,28,15,08,19.80
2018,09,28,15,09,19.80
2018,09,28,15,10,19.80
2018,09,28,15,11,19.80
2018,09,28,15,12,19.80
2018,09,28,15,13,19.80
2018,09,28,15,14,19.80
2018,09,28,15,15,19.80
2018,09,28,15,16,19.80
2018,09,28,15,17,19.80
2018,09,28,15,18,19.80
2018,09,28,15,19,19.90
2018,09,28,15,20,19.80
2018,09,28,15,21,19.90
2018,09,28,15,22,19.90
2018,09,28,15,23,19.90
2018,09,28,15,24,19.90
2018,09,28,15,25,19.90
2018,09,28,15,26,19.90
2018,09,28,15,27,19.90
2018,09,28,15,28,19.90
2018,09,28,15,29,19.90
2018,09,28,15,30,19.90
2018,09,28,15,31,19.90
2018,09,28,15,32,19.90
2018,09,28,15,33,19.90
2018,09,28,15,34,19.90
2018,09,28,15,35,19.90
2018,09,28,15,36,19.90
2018,09,28,15,37,19.90
2018,09,28,15,38,19.90
2018,09,28,15,39,19.90
2018,09,28,15,40,19.80
2018,09,28,15,41,19.80
2018,09,28,15,42,19.80
2018,09,28,15,43,19.90
2018,09,28,15,44,19.90
2018,09,28,15,45,19.80
2018,09,28,15,46,19.80
2018,09,28,15,47,19.80
2018,09,28,15,48,19.80
2018,09,28,15,49,19.90
2018,09,28,15,50,19.90
2018,09,28,15,51,19.90
2018,09,28,15,52,19.90
2018,09,28,15,53,19.90
2018,09,28,15,54,20.00
2018,09,28,15,55,20.00
2018,09,28,15,56,20.00
2018,09,28,15,57,20.00
2018,09,28,15,58,20.00
2018,09,28,15,59,20.00
2018,09,28,16,00,20.00
2018,09,28,16,01,20.10
2018,09,28,16,02,20.10
2018,09,28,16,03,20.10
2018,09,28,16,04,20.10
2018,09,28,16,05,20.10
2018,09,28,16,06,20.10
2018,09,28,16,07,20.10
2018,09,28,16,08,20.10
2018,09,28,16,09,20.10
2018,09,28,16,10,20.10
2018,09,28,16,11,20.10
2018,09,28,16,12,20.10
2018,09,28,16,13,20.10
2018,09,28,16,14,20.10
2018,09,28,16,15,20.00
2018,09,28,16,16,20.00
2018,09,28,16,17,19.90
2018,09,28,16,18,19.90
2018,09,28,16,19,19.90
2018,09,28,16,20,19.90
2018,09,28,16,21,19.90
2018,09,28,16,22,19.90
2018,09,28,16,23,19.80
2018,09,28,16,24,19.80
2018,09,28,16,25,19.90
2018,09,28,16,26,19.90
2018,09,28,16,27,19.90
2018,09,28,16,28,19.90
2018,09,28,16,29,20.00
2018,09,28,16,30,20.00
2018,09,28,16,31,20.00
2018,09,28,16,32,20.00
2018,09,28,16,33,20.10
2018,09,28,16,34,20.10
2018,09,28,16,35,20.00
2018,09,28,16,36,20.00
2018,09,28,16,37,19.90
2018,09,28,16,38,19.90
2018,09,28,16,39,19.90
2018,09,28,16,40,19.80
2018,09,28,16,41,19.80
2018,09,28,16,42,19.70
2018,09,28,16,43,19.70
2018,09,28,16,44,19.60
2018,09,28,16,45,19.60
2018,09,28,16,46,19.60
2018,09,28,16,47,19.50
2018,09,28,16,48,19.50
2018,09,28,16,49,19.50
2018,09,28,16,50,19.40
2018,09,28,16,51,19.40
2018,09,28,16,52,19.30
2018,09,28,16,53,19.30
2018,09,28,16,54,19.30
2018,09,28,16,55,19.30
2018,09,28,16,56,19.20
2018,09,28,16,57,19.20
2018,09,28,16,58,19.20
2018,09,28,16,59,19.10
2018,09,28,17,00,19.10
2018,09,28,17,01,19.10
2018,09,28,17,02,19.00
2018,09,28,17,03,19.00
2018,09,28,17,04,18.90
2018,09,28,17,05,18.90
2018,09,28,17,06,18.80
2018,09,28,17,07,18.80
2018,09,28,17,08,18.80
2018,09,28,17,09,18.80
2018,09,28,17,10,18.70
2018,09,28,17,11,18.70
2018,09,28,17,12,18.70
2018,09,28,17,13,18.70
2018,09,28,17,14,18.60
2018,09,28,17,15,18.60
2018,09,28,17,16,18.60
2018,09,28,17,17,18.50
2018,09,28,17,18,18.50
2018,09,28,17,19,18.40